Harrisburg, PA

1:16 AM EDT on September 20, 2017 (GMT -0400)
Capital City

Weather History for KCXY - December, 2012

Change the Weather History Date:

Thursday, December 6, 2012

  Actual Average Record
Temperature  
Mean Temperature 36 °F -  
Max Temperature 41 °F 43 °F 73 °F (1998)
Min Temperature 30 °F 30 °F 12 °F (2002)
Degree Days  
Heating Degree Days 30    
Moisture  
Dew Point 21 °F    
Average Humidity 57    
Maximum Humidity 76    
Minimum Humidity 46    
Precipitation  
Precipitation 0.00 in - - ()
Sea Level Pressure  
Sea Level Pressure 30.32 in    
Wind  
Wind Speed 6 mph (NE)    
Max Wind Speed 9 mph    
Max Gust Speed -    
Visibility 10 miles    
Events      
Averages and records for this station are not official NWS values.
T = Trace of Precipitation, MM = Missing Value Source: NWS Daily Summary

Daily Weather History Graph

Daily Weather History Graph

Search for Another Location

Airport or City:

Trip Planner

Search our weather history database for the weather conditions in past years. The results will help you decide how hot, cold, wet, or windy it might be!

Date:

Astronomy

Dec. 06, 2012 Rise Set
Actual Time 7:15 AM EST 4:41 PM EST
Civil Twilight 6:45 AM EST 5:11 PM EST
Nautical Twilight 6:11 AM EST 5:45 PM EST
Astronomical Twilight 5:38 AM EST 6:18 PM EST
Moon No Moon Rise 12:07 PM EST (12/6)
Length of Visible Light 10h 26m
Length of Day
9h 25m
Waning Gibbous, 49% of the Moon is Illuminated
Dec 6
Waning Gibbous
Dec 13
New
Dec 20
First Quarter
Dec 28
Full
Jan 4
Last Quarter

Hourly Weather History & Observations

Time (EST) Temp. Windchill Dew Point Humidity Pressure Visibility Wind Dir Wind Speed Gust Speed Precip Events Conditions
12:56 AM 35.1 °F 27.9 °F 19.0 °F 52% 30.33 in 10.0 mi NNW 9.2 mph - N/A   Clear
1:56 AM 34.0 °F 26.6 °F 19.0 °F 54% 30.34 in 10.0 mi NW 9.2 mph - N/A   Clear
2:56 AM 34.0 °F 26.6 °F 19.0 °F 54% 30.33 in 10.0 mi North 9.2 mph - N/A   Clear
3:56 AM 34.0 °F 31.0 °F 19.0 °F 54% 30.34 in 10.0 mi North 3.5 mph - N/A   Clear
4:56 AM 33.1 °F 28.7 °F 19.0 °F 56% 30.35 in 10.0 mi North 4.6 mph - N/A   Clear
5:56 AM 32.0 °F 24.2 °F 19.0 °F 59% 30.36 in 10.0 mi NNW 9.2 mph - N/A   Clear
6:56 AM 30.9 °F 24.3 °F 19.0 °F 61% 30.37 in 10.0 mi NNW 6.9 mph - N/A   Clear
7:56 AM 32.0 °F 27.5 °F 19.0 °F 59% 30.38 in 10.0 mi North 4.6 mph - N/A   Clear
8:56 AM 32.0 °F 27.5 °F 19.0 °F 59% 30.40 in 10.0 mi WNW 4.6 mph - N/A   Clear
9:56 AM 33.1 °F - 19.0 °F 56% 30.40 in 10.0 mi Calm Calm - N/A   Clear
10:56 AM 37.0 °F - 19.9 °F 50% 30.38 in 10.0 mi Calm Calm - N/A   Clear
11:56 AM 37.9 °F 35.5 °F 19.0 °F 47% 30.35 in 10.0 mi East 3.5 mph - N/A   Clear
12:56 PM 39.0 °F - 19.9 °F 46% 30.31 in 10.0 mi Calm Calm - N/A   Clear
1:56 PM 39.9 °F 35.8 °F 21.0 °F 47% 30.29 in 10.0 mi East 5.8 mph - N/A   Clear
2:56 PM 41.0 °F 35.8 °F 21.9 °F 47% 30.28 in 10.0 mi East 8.1 mph - N/A   Clear
3:56 PM 39.9 °F 34.5 °F 23.0 °F 51% 30.27 in 10.0 mi ESE 8.1 mph - N/A   Clear
4:56 PM 37.0 °F 32.4 °F 23.0 °F 57% 30.28 in 10.0 mi SE 5.8 mph - N/A   Clear
5:56 PM 36.0 °F 33.3 °F 21.9 °F 57% 30.28 in 10.0 mi South 3.5 mph - N/A   Clear
6:56 PM 33.1 °F - 23.0 °F 66% 30.28 in 10.0 mi Calm Calm - N/A   Clear
7:56 PM 32.0 °F - 23.0 °F 69% 30.27 in 10.0 mi Calm Calm - N/A   Clear
8:56 PM 30.9 °F - 24.1 °F 76% 30.28 in 10.0 mi Calm Calm - N/A   Clear
9:56 PM 34.0 °F 27.2 °F 21.9 °F 61% 30.27 in 10.0 mi SE 8.1 mph - N/A   Clear
10:56 PM 34.0 °F 27.2 °F 21.9 °F 61% 30.27 in 10.0 mi SE 8.1 mph - N/A   Clear
11:56 PM 34.0 °F 31.0 °F 23.0 °F 64% 30.25 in 10.0 mi ESE 3.5 mph - N/A   Clear